Location: Drawno
(53.2148°N, 15.7493°E)
Time: 16:37:02
(UTC+01:00)

ISS - Visible Passes

Search period start: 20 November 2017 00:00
Search period end: 30 November 2017 00:00
Orbit: 402 x 407 km, 51.6° (Epoch: 21 November)

Date Brightness Start Highest point End Pass type
(mag) Time Alt. Az. Time Alt. Az. Time Alt. Az.
28 Nov -1.1 18:17:14 10° S 18:17:35 11° S 18:17:35 11° S visible
29 Nov -1.3 17:26:24 10° SSE 17:27:15 11° SE 17:27:28 11° SE visible
29 Nov -0.6 18:59:58 10° SW 19:00:07 11° SW 19:00:07 11° SW visible
